Wind_Speed
13 13 12 12 13 14 14 16 18 18 17 19 20 20 21 22 21 20 20 20 21 22 22 21 20 18 17 17 18 19 18 17 17 17 16 16 16 15 15 15 14 13 12 12 12 12 12 12 12 11 10 10 10 10 9 8 9 10 9 9 8 6 5 4 4 8 11 10 8 6 5 3 2 2 2 3 4 3 1 1 1 1 1 1 1
15 14 14 14 14 14 12 13 15 16 16 19 20 20 21 22 21 20 21 22 22 22 22 21 21 19 18 18 19 19 18 17 18 17 17 17 16 15 15 14 12 12 11 11 11 12 12 12 11 11 11 11 11 10 9 8 9 10 11 10 9 7 7 7 7 9 9 8 6 4 3 2 2 1 1 3 4 4 3 3 2 2 2 1 1
16 16 16 15 15 14 12 11 13 16 18 20 20 20 20 21 21 21 21 22 22 22 21 21 21 19 18 19 20 19 18 18 18 17 17 17 16 15 14 13 12 11 11 11 11 11 11 11 12 12 12 12 11 10 9 9 9 9 10 10 9 9 10 9 7 7 6 5 5 4 2 1 1 0 2 2 4 5 5 4 3 3 3 2 1
15 16 17 17 15 14 13 12 14 16 19 20 20 19 20 21 21 21 22 22 22 22 21 21 21 20 19 20 19 19 18 17 17 17 17 16 15 15 14 13 12 11 10 9 9 10 10 11 12 13 12 12 11 10 9 9 10 10 9 9 9 10 10 9 7 5 3 3 3 4 3 2 1 1 2 2 2 4 4 3 3 3 3 2 2
14 14 16 16 16 15 14 15 16 17 18 19 19 18 19 21 22 22 23 23 22 22 22 21 21 20 20 18 17 17 16 15 16 17 18 17 15 14 13 13 13 11 10 9 9 10 11 12 13 13 12 12 11 10 9 9 10 9 8 8 8 9 10 9 7 5 3 2 2 2 3 2 1 2 2 2 1 2 3 2 2 2 2 2 2
16 15 15 14 14 14 15 17 17 16 16 16 16 17 19 22 24 24 24 23 23 22 22 22 21 20 18 16 16 15 15 15 16 17 17 17 16 14 14 14 12 11 10 10 10 11 11 12 13 12 12 12 11 10 9 10 10 10 8 7 7 8 8 8 7 6 4 3 2 2 3 2 2 2 3 3 3 3 3 4 4 4 5 6 6
20 18 15 13 12 11 13 17 18 15 13 14 14 16 20 23 25 26 26 24 24 23 22 22 21 19 17 15 15 15 15 16 16 16 17 17 16 15 15 14 12 12 12 11 11 11 11 12 12 12 12 12 12 11 11 11 10 9 8 6 6 6 7 7 7 7 6 5 4 4 4 3 2 3 4 5 6 6 6 6 7 7 8 9 9
23 22 17 12 11 11 10 14 18 15 13 15 16 17 21 24 26 27 26 25 24 23 23 23 22 20 18 17 16 16 16 17 17 16 16 16 16 15 15 14 13 13 13 12 11 11 11 11 11 11 12 12 13 13 11 10 9 8 7 6 7 7 7 7 7 7 6 6 5 5 5 5 4 5 6 7 7 8 8 9 9 10 11 12 12
27 24 19 15 12 10 8 10 14 15 14 17 19 20 23 26 27 28 27 25 24 23 23 24 23 21 19 17 16 16 17 17 16 16 16 15 15 15 14 14 13 13 13 13 12 11 11 11 11 12 12 13 13 12 11 9 8 6 6 7 8 8 7 7 7 6 5 5 6 6 6 7 6 7 8 8 9 9 10 11 12 12 14 15 14
29 26 22 19 17 13 8 7 11 15 16 18 20 21 24 27 28 29 29 27 25 24 24 23 21 20 18 16 17 17 17 17 17 16 15 15 15 14 14 13 13 13 14 14 13 12 12 12 12 13 14 14 13 12 11 10 9 8 8 8 8 7 7 6 6 5 5 5 6 6 6 7 7 8 8 8 9 10 11 12 13 13 14 15 15
29 28 25 22 21 20 13 8 9 13 15 17 20 22 26 28 29 30 31 28 26 25 23 22 21 19 17 17 17 18 18 18 17 16 15 13 13 13 14 15 15 15 15 14 13 13 13 14 15 16 15 14 13 13 12 11 9 8 8 8 7 6 5 5 5 5 5 6 5 6 6 7 8 8 9 9 9 11 12 13 15 15 15 17 17
29 28 26 24 23 23 18 11 8 10 12 16 20 24 27 30 31 32 31 29 27 26 23 21 20 20 19 19 19 19 19 18 17 16 14 13 12 12 14 16 16 15 14 12 12 14 16 17 18 17 15 14 13 12 11 10 8 7 7 6 6 5 5 4 4 5 5 5 5 6 6 7 8 8 9 10 11 12 13 14 15 16 16 17 18
28 27 26 24 24 24 19 12 8 8 9 12 19 25 28 31 33 31 30 29 28 26 24 20 19 20 21 21 20 20 19 18 17 16 14 13 12 12 15 16 15 14 13 13 14 17 18 18 19 17 15 13 12 11 10 9 8 7 6 5 5 4 4 4 5 5 5 6 6 6 6 7 8 9 10 11 11 12 13 14 15 16 17 18 18
26 27 27 25 24 24 19 12 9 9 11 13 19 25 27 30 33 31 29 30 29 27 25 21 20 22 23 21 20 20 19 18 17 16 14 14 12 12 14 16 15 14 15 16 18 19 18 17 16 16 15 12 10 9 8 8 7 6 5 4 4 3 4 4 4 4 5 5 5 6 6 7 8 10 11 12 13 13 14 15 16 17 18 18 18
24 26 28 26 23 21 18 13 10 10 13 16 21 26 27 28 31 32 30 31 31 29 27 23 21 23 23 22 21 20 18 17 16 15 15 14 13 12 14 16 16 17 18 19 20 18 16 15 13 13 12 11 9 8 7 7 7 5 4 3 2 2 3 4 4 5 5 6 7 7 8 9 10 11 12 14 15 15 15 15 15 15 15 15 15
23 26 28 26 21 16 14 12 9 10 13 17 22 26 27 28 30 31 32 33 32 30 28 25 23 23 23 21 20 19 18 17 15 15 16 14 13 14 15 15 16 17 19 21 20 18 15 13 12 12 12 11 9 8 7 6 5 3 2 1 1 3 4 5 7 8 9 9 10 11 12 13 13 14 14 14 14 14 13 13 12 12 11 11 11
24 26 27 26 20 13 10 9 7 5 6 12 20 25 27 28 30 31 32 32 31 30 29 27 24 24 23 21 19 19 18 17 16 14 14 14 13 14 15 15 16 16 18 21 21 19 16 13 11 11 11 10 9 8 6 4 3 2 1 2 4 6 7 9 10 10 11 11 12 13 14 15 14 14 13 12 12 12 11 11 11 11 11 11 11
24 24 25 25 20 12 7 6 6 6 7 3 8 18 24 28 30 29 28 30 29 27 28 28 25 25 24 21 20 20 19 18 15 13 13 14 13 13 14 15 15 16 18 18 17 16 15 13 11 10 8 8 7 6 4 2 1 3 5 6 8 10 10 10 10 9 9 10 11 13 15 15 13 12 12 11 11 12 11 11 11 11 12 11 11
24 22 23 24 22 14 7 3 4 6 8 8 4 4 8 17 24 24 23 26 26 24 26 28 26 25 24 21 21 21 20 18 15 13 13 13 12 12 14 15 17 18 17 16 14 13 13 12 10 9 8 7 6 5 3 4 6 8 9 11 13 14 13 12 12 11 11 11 12 13 13 12 12 11 11 11 11 11 11 11 11 11 10 10 10
23 20 19 20 22 20 12 4 3 6 7 6 6 7 8 5 10 14 16 20 22 22 23 25 25 25 23 22 22 22 22 21 18 14 13 12 11 12 14 16 18 17 15 14 13 12 10 10 10 9 9 8 6 6 7 8 9 10 11 13 15 15 13 13 13 12 12 12 11 10 9 9 9 9 10 10 10 10 10 9 9 9 9 9 9
22 18 15 16 20 23 20 12 5 6 8 10 10 9 7 6 5 7 11 16 21 23 23 23 25 25 24 23 23 23 22 21 20 18 16 14 12 13 13 14 14 14 14 13 12 10 8 8 8 8 8 7 7 9 10 10 9 9 10 11 11 10 9 9 8 7 7 7 7 6 6 7 7 8 8 9 8 8 8 8 8 8 7 7 7
20 18 15 14 15 18 20 19 14 11 12 14 14 13 11 9 7 8 12 17 21 23 23 24 25 26 25 22 20 19 18 17 17 18 17 15 14 13 13 12 12 12 12 10 9 9 8 9 9 8 8 8 9 9 8 8 7 7 7 6 5 4 4 3 3 3 4 4 5 5 6 7 8 8 8 8 8 8 7 7 7 6 6 6 5
18 18 17 17 16 15 15 15 15 15 16 16 16 16 15 14 13 13 15 18 19 18 17 18 20 21 21 18 15 15 15 14 14 15 14 13 11 10 10 8 8 8 8 8 9 9 9 9 8 8 8 8 7 6 6 5 5 4 3 2 1 1 1 1 2 3 4 5 6 7 7 7 8 7 7 7 6 6 5 5 6 6 5 5 5
17 17 18 19 20 19 16 13 11 10 10 10 10 11 12 12 12 11 11 12 12 12 12 13 14 15 15 14 14 13 13 13 13 13 12 11 10 8 7 5 4 4 5 6 7 8 8 8 8 7 7 6 5 4 4 3 2 1 1 1 1 1 0 2 3 5 7 7 7 7 6 5 5 5 4 4 3 3 4 4 5 6 5 5 5
19 18 17 18 19 20 20 18 14 11 8 5 3 5 6 5 5 5 4 4 3 3 4 5 6 6 6 8 9 9 9 9 9 9 8 7 7 6 6 5 5 5 5 7 8 8 8 8 7 6 5 4 3 3 3 3 2 2 2 2 1 1 3 5 6 7 7 5 4 4 4 3 3 3 3 3 4 4 4 5 6 7 7 7 7
19 20 19 17 16 17 19 21 21 18 15 10 7 7 7 4 2 2 2 3 4 5 5 6 7 7 9 10 10 9 9 8 7 7 7 8 8 8 8 8 9 9 10 10 10 9 9 8 6 5 5 4 4 3 3 3 4 3 2 1 2 4 5 6 5 5 4 4 4 4 4 4 4 4 4 4 4 4 4 5 6 8 8 9 9
17 18 19 18 16 14 15 18 20 21 19 17 14 14 13 13 12 10 7 4 2 1 3 4 6 6 7 7 8 7 6 6 5 6 7 7 8 9 9 10 10 11 11 10 10 9 8 7 7 6 6 6 5 4 4 5 4 2 1 3 5 5 5 4 4 4 4 5 5 5 6 6 5 5 5 4 4 4 6 6 7 8 8 8 9
22 19 17 16 16 15 14 14 15 17 18 17 16 16 16 17 17 16 14 12 11 10 10 11 12 12 12 12 11 9 7 5 4 3 3 2 3 5 7 9 9 9 9 9 8 8 8 8 8 8 7 7 6 5 5 3 1 2 4 5 5 5 5 5 5 5 6 7 7 8 8 7 6 6 6 6 6 7 8 9 9 9 9 9 9
25 24 22 19 17 15 15 14 14 15 15 15 15 15 15 14 14 13 13 12 12 11 11 11 12 13 12 10 9 9 7 6 4 4 2 0 2 5 6 7 8 7 6 6 6 8 10 10 10 10 8 7 6 5 3 1 3 3 4 4 4 6 7 7 7 8 9 9 9 9 8 7 7 8 8 8 8 9 9 9 9 9 10 10 11
22 23 24 23 20 17 15 14 14 14 15 16 15 14 13 12 11 10 9 9 9 8 7 7 7 8 9 9 10 10 9 5 3 2 2 4 5 6 5 5 5 5 5 6 7 9 11 12 11 9 8 6 4 2 1 3 3 4 4 5 7 8 8 9 9 10 10 9 8 8 7 7 7 8 9 9 9 9 9 9 9 10 10 11 11
20 20 21 22 21 19 18 17 15 14 14 16 15 14 11 9 7 6 6 6 5 5 4 4 4 5 7 8 9 10 8 6 4 4 4 5 5 6 6 6 6 6 7 8 9 10 11 11 10 9 7 4 2 1 3 3 3 4 5 6 7 8 9 9 9 9 8 7 7 7 7 7 8 9 10 11 10 10 10 10 10 11 11 12 12
19 19 18 19 19 18 17 17 16 16 15 15 15 15 14 11 8 5 3 2 3 2 2 3 3 4 5 5 6 6 5 5 6 7 7 8 8 9 10 11 11 10 10 9 9 11 11 10 9 8 5 2 0 2 2 2 3 4 5 6 8 8 8 8 8 7 6 6 6 6 6 8 9 10 11 11 11 11 11 10 11 11 11 12 12
19 18 17 17 17 16 15 14 14 15 15 15 14 14 14 13 11 9 6 4 3 3 3 3 4 4 5 6 6 6 6 7 9 10 10 11 11 11 12 12 11 11 10 8 7 9 10 8 7 5 3 1 0 1 2 4 5 6 7 7 7 7 7 7 7 6 5 6 6 6 7 8 10 10 11 11 11 10 10 10 10 10 10 11 11
19 18 17 17 17 15 14 14 13 13 14 14 14 13 12 12 11 11 10 9 7 6 6 7 7 7 8 9 9 9 9 10 11 11 11 11 10 8 7 8 9 9 9 7 6 7 8 7 5 4 3 2 4 5 6 7 8 8 7 6 6 6 7 7 7 6 6 7 7 8 9 9 10 10 10 10 10 9 9 9 9 10 10 10 11
19 18 17 17 17 16 14 13 13 13 13 13 13 12 12 12 11 11 11 11 10 10 10 10 10 9 9 10 10 9 9 9 10 10 9 8 7 5 3 1 5 8 8 8 8 8 8 7 5 5 5 6 7 8 8 9 8 7 6 6 7 8 8 9 8 8 8 8 8 9 9 10 10 9 9 8 8 8 9 9 9 9 9 9 10
20 19 18 17 16 16 15 14 13 13 13 13 13 12 13 13 13 12 12 11 11 11 11 11 11 11 10 9 9 9 9 8 8 7 6 5 6 7 6 2 3 7 8 8 8 8 7 7 7 8 8 8 9 9 9 8 7 7 7 8 9 9 9 9 8 8 8 7 8 8 9 9 9 9 8 8 8 9 9 9 9 9 9 10 10
19 20 20 18 16 15 14 14 14 13 13 13 12 12 13 14 13 12 11 10 11 12 12 12 12 11 11 10 9 9 8 7 6 5 5 7 9 10 7 3 6 8 9 10 9 9 10 10 9 9 9 8 9 8 8 8 8 8 8 8 8 8 7 7 7 7 7 7 7 7 7 8 8 8 8 8 8 9 9 11 11 9 8 9 10
17 18 19 19 18 15 13 13 13 12 12 12 11 11 11 12 11 11 11 11 11 12 13 12 11 11 10 11 10 8 6 5 5 6 7 8 10 8 4 7 9 10 10 11 10 9 9 9 8 8 8 8 8 8 8 9 9 8 8 7 8 9 9 9 8 8 7 6 5 5 6 6 7 7 7 7 8 9 11 12 13 11 10 10 10
15 16 16 17 18 17 14 12 11 11 10 10 10 8 8 9 10 9 10 11 11 11 12 11 11 10 10 9 8 7 7 7 6 6 6 6 6 3 4 7 8 8 8 8 7 7 6 7 7 8 8 8 9 10 10 10 10 9 9 9 9 9 9 9 7 6 5 4 4 4 4 4 5 6 7 8 9 10 11 12 13 13 12 12 11
14 15 14 15 16 17 17 14 11 10 10 10 8 6 5 6 8 8 8 9 9 9 9 9 8 8 8 7 7 7 8 8 6 4 4 4 3 3 5 5 5 5 5 5 6 6 6 7 8 8 9 10 10 10 10 10 10 10 10 9 8 8 7 6 5 4 3 2 2 3 3 4 5 6 8 8 9 10 10 11 12 12 13 12 12
12 13 13 14 14 16 17 17 14 10 9 10 9 7 5 4 5 6 6 6 6 6 5 5 5 5 5 5 6 7 8 6 4 2 3 3 2 3 4 4 4 4 5 6 7 7 7 8 9 9 9 10 10 10 9 9 9 8 8 7 7 6 6 5 4 3 2 2 2 2 3 4 4 5 6 7 8 9 10 10 11 11 11 11 11
9 10 11 12 13 14 16 18 17 12 9 9 9 9 7 4 3 3 3 3 4 4 4 3 4 6 5 2 5 7 6 4 2 2 3 3 2 2 3 3 4 4 5 6 8 8 8 8 9 9 9 9 9 9 8 7 7 7 6 6 6 6 5 5 4 4 3 3 2 2 2 2 3 4 5 6 7 9 9 9 10 10 10 9 9
8 8 8 9 11 12 14 15 16 14 10 8 8 8 7 5 3 1 0 1 3 4 3 3 5 5 3 0 5 8 7 5 3 2 3 3 2 1 1 2 2 3 5 5 6 7 7 7 7 7 7 7 7 7 7 6 6 5 4 4 5 5 5 4 4 3 3 3 2 1 1 1 2 4 5 6 8 9 9 9 9 9 10 9 9
8 7 6 7 8 10 11 12 12 12 11 8 7 7 7 6 4 3 2 2 3 5 5 6 5 3 3 2 6 8 7 7 6 5 4 4 3 2 2 1 1 2 3 4 5 5 6 6 6 5 5 5 5 6 5 5 5 4 3 3 3 3 3 3 3 2 2 2 2 1 1 2 3 5 6 7 8 9 9 9 9 9 9 9 9
9 7 6 5 5 7 9 10 9 9 9 9 8 8 8 8 6 5 4 3 4 5 6 6 5 2 2 2 5 7 6 5 6 6 5 5 5 4 3 3 2 0 2 3 4 4 5 5 5 5 5 4 4 4 4 4 3 3 3 2 2 2 2 2 2 1 1 1 1 1 2 3 4 5 7 7 8 9 10 10 10 10 10 9 9
8 7 5 5 5 5 7 8 8 7 7 7 7 8 8 8 7 5 4 4 5 6 7 5 3 2 0 1 2 5 5 5 5 5 4 5 5 5 4 3 2 1 2 3 4 5 5 4 4 4 4 4 4 4 3 3 3 3 3 3 3 3 3 2 2 2 1 1 2 2 3 4 5 6 7 8 9 10 11 11 12 12 12 11 11
5 6 6 5 5 5 6 7 8 8 7 6 6 6 6 7 7 6 4 4 4 6 6 5 4 4 3 2 2 3 4 5 5 5 5 5 6 6 5 3 2 3 4 4 5 5 6 5 4 4 4 4 4 4 3 3 3 3 3 3 3 3 3 3 3 3 3 2 3 3 4 4 5 6 7 8 10 11 12 12 13 13 13 12 12
5 6 7 6 6 6 6 6 7 7 8 8 7 6 5 5 5 6 6 5 5 5 5 5 5 5 4 3 2 3 4 5 5 5 6 6 6 5 4 4 2 2 5 6 6 6 6 6 6 5 5 5 5 4 4 3 3 3 4 4 4 4 4 3 3 3 3 2 2 2 3 4 5 6 7 9 10 11 12 13 13 13 12 11 10
6 7 7 7 6 6 6 6 7 8 8 9 9 9 8 6 5 5 6 6 6 5 5 5 5 6 5 3 2 3 5 6 6 6 5 6 5 4 3 3 3 2 3 5 7 7 8 8 8 7 7 6 6 5 4 4 4 4 4 3 3 3 2 2 2 2 2 1 1 1 2 4 5 6 8 9 11 12 13 13 13 12 11 9 7
6 7 7 7 6 5 5 6 7 8 9 9 9 10 10 9 7 6 6 6 7 6 6 6 6 6 6 6 6 7 8 9 8 7 5 5 5 4 3 2 2 2 2 4 6 8 9 9 9 9 9 8 7 6 5 5 5 4 4 3 2 2 1 1 1 1 1 0 0 1 2 4 5 6 8 9 11 12 13 13 13 12 9 7 5
6 7 7 7 7 7 7 7 8 9 10 10 10 10 11 11 11 9 7 7 8 9 9 9 10 9 9 9 10 11 11 11 9 8 7 6 6 5 3 1 2 3 3 3 4 6 8 9 10 10 10 9 8 7 6 6 5 5 4 4 3 3 2 1 1 1 1 0 0 1 2 3 5 6 7 9 11 11 11 12 12 10 7 5 3
Wind_Direction
294 283 273 268 268 266 258 253 255 255 252 251 249 247 247 241 234 232 224 217 216 217 215 211 209 213 214 214 213 208 205 205 207 208 207 207 209 209 211 212 213 215 215 214 213 212 211 210 210 212 213 215 218 225 226 215 206 202 196 190 187 188 188 176 126 138 159 165 162 163 161 156 164 173 200 212 209 210 221 276 309 289 251 236 239
303 292 277 266 265 269 266 257 259 263 258 252 249 246 242 234 229 228 217 211 213 214 212 208 206 211 213 212 210 205 203 205 209 211 210 209 210 211 210 210 211 212 212 212 212 213 212 209 210 212 214 216 218 220 218 209 203 199 194 186 174 168 170 163 143 140 155 168 174 179 170 151 148 157 251 222 210 217 230 242 240 214 205 225 263
307 301 289 277 269 267 262 251 250 255 254 249 246 244 238 229 225 222 212 207 211 211 210 208 207 210 211 209 208 204 203 207 211 211 209 208 209 210 209 207 208 211 211 212 212 211 209 206 206 208 210 210 209 209 203 197 196 195 193 186 173 168 172 170 162 155 162 176 191 205 205 143 122 335 304 246 212 220 232 228 211 190 188 204 243
311 302 293 285 278 274 267 253 248 252 252 250 249 244 234 226 220 213 207 207 210 209 209 210 210 209 208 206 204 202 203 208 211 211 209 207 207 209 208 206 205 206 209 211 210 206 203 202 201 200 202 201 199 198 193 187 187 188 191 193 186 180 179 180 182 182 181 184 199 217 216 187 174 260 298 290 212 205 209 202 193 189 194 207 232
335 320 308 294 281 271 265 258 255 256 256 258 261 253 235 224 217 209 206 208 209 209 209 210 210 209 206 203 201 200 203 209 213 213 209 206 206 207 206 204 202 200 201 203 203 200 199 198 196 194 194 193 192 193 188 183 182 182 184 189 188 188 187 189 197 204 198 187 206 235 231 225 239 243 254 279 245 204 200 210 225 238 254 276 289
353 346 333 315 296 276 261 255 253 252 253 258 262 251 231 220 213 208 207 207 205 207 209 209 209 206 201 201 201 203 209 214 216 214 209 204 203 204 204 202 199 196 196 196 197 197 197 197 194 190 189 188 189 189 184 177 175 174 174 174 177 184 189 195 207 215 215 224 241 240 230 245 281 263 245 254 262 254 244 251 262 276 288 297 302
357 357 350 335 317 298 272 255 248 244 246 249 249 238 223 213 210 209 208 205 202 205 208 207 204 199 197 202 206 209 215 217 214 209 205 203 202 203 201 197 193 191 192 192 191 193 194 195 193 188 187 187 182 177 173 168 166 166 168 170 176 187 197 207 220 229 234 241 240 227 219 234 279 283 265 258 260 264 268 276 286 295 299 302 303
358 0 2 354 331 314 295 262 247 241 240 242 240 231 217 210 208 208 208 204 202 206 208 203 196 192 197 206 210 211 213 211 205 200 198 197 197 196 193 188 186 187 187 185 185 189 189 189 190 187 186 181 171 164 163 162 161 161 165 173 182 194 205 216 226 237 245 248 242 234 231 236 257 274 272 271 273 280 287 293 299 304 304 303 303
360 359 1 4 350 324 303 268 251 243 237 234 233 225 214 209 207 205 203 199 200 206 206 198 192 192 199 209 211 207 204 200 194 189 187 185 184 184 184 183 185 187 186 182 182 185 185 185 185 179 173 166 160 158 160 161 162 164 172 179 186 195 204 212 223 235 245 247 244 245 247 252 266 277 283 288 292 293 295 294 296 299 299 299 300
0 359 357 360 359 345 319 272 250 243 235 229 229 222 213 208 205 201 198 196 199 204 198 191 191 197 206 212 206 198 193 188 184 180 178 178 180 183 186 186 188 189 186 183 183 181 178 179 175 167 161 156 155 157 161 165 166 165 171 178 182 190 198 203 210 219 230 239 244 249 255 263 272 278 282 285 284 285 285 286 287 288 289 291 294
358 357 356 356 355 351 339 302 257 247 238 229 226 221 211 205 200 197 196 197 199 198 191 188 194 203 212 210 199 192 187 183 180 178 176 178 183 189 190 187 188 189 185 183 183 175 169 169 166 161 158 154 154 156 158 162 163 159 166 176 179 182 189 192 200 212 226 236 243 247 252 260 268 274 279 281 282 282 283 284 286 288 290 292 294
355 353 355 354 349 347 341 322 288 265 247 228 222 220 210 199 195 194 195 195 195 191 187 192 200 203 203 200 193 190 187 182 180 180 178 178 182 186 183 181 185 186 181 179 175 166 161 162 161 158 157 155 154 155 155 156 157 159 164 172 178 186 196 212 230 242 247 249 255 258 262 268 275 281 286 288 289 289 289 289 290 292 294 294 295
357 357 357 352 344 345 344 335 321 303 278 244 227 221 210 196 190 192 193 192 190 187 185 191 196 193 190 190 191 189 185 183 183 182 180 176 175 177 177 178 183 181 174 169 165 160 158 159 160 158 157 156 155 156 159 157 155 159 164 169 180 193 209 229 241 248 251 255 263 271 277 282 288 292 294 294 292 290 289 290 290 290 291 290 290
1 4 3 356 348 350 351 344 324 304 291 269 236 219 209 198 190 190 192 190 187 184 184 186 185 184 183 185 188 187 184 184 185 184 182 175 169 171 175 178 179 174 167 164 161 159 159 163 164 158 153 154 160 165 171 170 164 165 171 182 197 211 224 235 241 246 252 260 271 281 289 293 296 297 298 298 298 297 296 295 293 292 292 292 292
5 8 7 5 359 353 349 341 312 273 262 255 233 215 206 199 193 191 191 188 185 184 185 185 181 181 183 184 185 185 183 183 185 185 184 180 174 173 173 174 175 171 166 164 162 163 165 169 169 161 154 157 164 163 161 161 162 169 179 189 209 240 259 267 274 277 280 285 291 295 301 304 304 304 304 305 306 306 305 304 301 299 299 298 297
10 12 11 10 8 359 350 345 318 271 243 228 218 210 205 201 196 193 191 189 189 189 186 184 181 181 184 185 184 185 184 181 183 184 184 185 184 178 173 170 170 168 167 168 168 169 169 167 165 163 159 159 160 156 152 150 151 154 146 109 356 330 318 310 306 303 301 303 307 311 313 312 312 312 312 311 311 310 311 311 309 308 307 303 298
13 14 14 12 12 9 7 15 11 327 269 222 206 200 202 201 196 194 193 192 196 195 186 180 180 181 184 185 183 185 186 183 183 185 186 188 187 184 181 177 174 174 176 176 173 170 168 163 161 161 160 161 163 160 156 149 141 129 66 350 332 321 313 305 300 297 296 300 309 315 316 314 313 313 312 312 311 311 312 311 307 306 304 299 294
13 14 16 15 13 10 10 35 59 51 23 340 207 191 192 192 191 195 197 193 196 195 180 174 180 183 182 182 181 183 186 184 182 186 188 188 189 190 189 185 184 187 187 183 176 166 159 157 160 165 167 170 171 167 163 170 261 307 312 314 315 314 310 305 300 296 296 301 308 310 310 310 311 311 311 310 309 307 306 302 299 299 299 297 294
15 17 20 19 16 11 1 30 87 91 63 36 36 131 163 179 185 193 194 187 189 188 173 171 180 180 175 176 179 182 183 180 179 181 176 178 189 199 200 196 193 189 184 179 172 163 159 162 168 175 177 179 181 187 215 261 282 291 297 302 306 305 300 297 296 297 300 305 306 304 303 304 306 308 307 307 308 308 307 306 303 302 302 301 299
15 18 24 27 27 24 16 18 114 123 110 101 102 81 62 104 166 177 176 172 175 173 167 171 178 174 170 176 181 182 180 176 173 171 165 167 183 196 198 196 188 176 165 162 162 163 167 173 176 180 184 188 199 223 250 267 275 280 285 290 292 288 284 286 288 289 291 295 297 299 300 300 302 304 305 307 308 309 310 310 308 308 310 309 307
16 15 25 36 41 41 37 35 68 124 127 128 133 124 93 77 109 141 157 165 168 167 169 175 176 170 171 177 177 173 172 168 162 158 157 160 167 176 181 183 179 168 158 159 164 169 179 187 191 198 205 216 235 251 261 267 271 276 280 281 279 275 274 278 282 284 288 291 295 299 302 303 305 308 310 313 316 318 319 320 320 320 321 319 316
22 20 29 42 50 54 53 52 57 77 98 111 120 126 130 137 146 154 160 161 163 165 167 168 167 164 164 166 165 162 164 163 157 155 159 165 172 181 187 189 191 189 183 187 199 203 205 207 210 219 231 242 251 256 261 266 271 275 277 276 271 263 263 271 283 297 304 306 310 312 313 314 315 316 320 323 328 330 330 330 332 335 336 333 330
28 28 34 42 47 52 58 62 66 70 77 84 92 103 116 126 135 145 151 148 148 150 149 149 154 156 155 158 163 166 170 173 167 163 167 171 177 188 195 197 204 204 198 204 213 212 209 213 220 231 240 246 251 254 255 260 266 266 259 250 231 212 235 282 295 302 307 311 313 312 312 313 314 316 322 327 331 335 338 344 348 348 346 340 334
29 34 38 41 45 48 51 58 68 75 72 63 62 76 88 94 101 113 124 128 134 142 142 141 147 149 148 154 164 167 171 175 174 172 173 174 176 181 187 188 188 181 175 185 200 210 217 222 226 232 237 241 244 241 231 223 216 192 164 147 137 145 235 297 302 306 309 310 311 313 316 322 327 332 337 341 342 345 353 353 349 345 342 337 335
27 34 39 40 42 46 52 56 56 58 66 72 91 107 101 84 58 46 53 75 111 150 154 151 155 156 160 170 173 172 173 174 176 178 179 185 192 196 201 205 206 210 213 216 220 224 224 220 219 221 224 222 211 196 179 157 145 139 134 130 127 330 320 320 319 319 320 324 336 349 2 9 9 7 8 5 356 356 6 6 357 351 349 346 343
31 35 38 38 38 40 49 55 55 51 52 61 81 100 107 113 107 26 345 316 287 274 262 248 237 228 222 212 201 195 194 195 203 212 219 226 228 226 227 226 222 218 215 211 208 206 204 203 205 204 191 171 158 155 147 136 130 126 117 76 340 336 337 339 341 346 358 18 29 32 32 30 28 31 32 23 10 7 13 10 358 347 342 341 343
36 38 39 40 39 37 41 48 51 51 51 54 64 74 78 82 87 89 85 81 92 183 198 195 190 181 171 158 148 146 150 156 167 183 194 201 204 204 206 209 210 208 205 201 198 197 197 194 187 178 167 156 151 148 136 128 123 104 10 346 346 353 2 12 18 24 35 42 44 44 44 43 43 44 43 33 17 9 8 4 357 352 349 351 354
40 39 39 41 44 46 47 47 47 48 49 50 59 72 79 80 80 79 78 78 81 90 96 100 103 101 96 91 84 76 72 69 71 82 102 136 183 202 206 211 217 219 217 214 208 199 191 181 170 163 160 157 149 138 127 116 76 353 347 350 359 14 27 35 40 48 56 58 57 58 58 55 51 45 39 31 23 19 19 16 13 12 11 6 1
38 39 39 39 41 46 53 59 61 60 58 54 53 59 70 79 84 83 81 79 78 79 80 81 83 83 81 76 68 58 48 35 27 29 38 74 219 220 216 219 226 223 214 208 198 181 170 166 160 155 152 149 141 130 116 52 357 353 359 13 30 42 51 58 61 66 69 66 64 64 61 54 48 44 38 31 27 25 24 20 15 13 9 3 2
37 37 38 39 40 41 46 55 63 68 71 67 61 56 56 64 76 87 95 97 92 84 77 70 64 56 49 42 37 34 35 39 51 75 150 189 201 203 202 206 214 203 182 173 173 172 166 161 156 153 151 148 141 123 60 12 7 19 36 50 56 59 65 68 68 70 71 69 66 64 60 54 48 43 35 30 28 27 25 23 22 20 17 17 21
42 39 38 39 39 39 41 45 49 57 64 67 66 62 56 54 62 81 100 108 107 99 87 66 42 31 26 19 13 15 25 44 70 100 133 151 156 155 151 147 144 146 152 157 162 166 166 162 158 158 157 152 135 54 20 20 30 46 59 66 70 72 72 70 72 74 73 69 68 66 61 50 40 35 33 34 35 36 35 35 34 34 34 34 34
47 45 41 38 38 38 40 43 45 48 54 61 64 63 59 55 53 57 70 92 99 91 71 37 21 22 26 23 19 22 40 64 79 89 100 106 111 117 120 123 128 133 141 151 157 161 166 168 165 160 157 153 38 10 22 55 70 73 78 81 81 80 76 74 79 82 78 75 73 63 52 42 35 37 43 47 49 48 44 42 41 40 40 36 30
49 50 46 41 39 39 41 43 45 47 49 52 56 59 59 56 53 48 39 28 20 17 19 26 36 43 53 63 70 77 86 88 85 84 87 91 97 106 114 122 130 136 145 162 174 169 169 174 172 166 175 228 270 108 108 106 98 95 97 92 82 78 78 82 89 91 87 83 73 59 51 46 42 47 52 52 51 48 44 43 41 36 30 24 20
47 49 48 45 43 43 44 44 44 44 45 46 46 48 50 51 52 53 51 48 47 52 58 64 67 67 73 82 87 91 93 90 87 86 85 85 87 94 109 131 147 154 164 186 207 197 186 191 198 199 201 180 145 129 117 108 104 103 103 92 80 78 83 91 99 99 89 79 67 57 54 50 49 53 53 49 47 43 38 36 29 20 18 18 16
45 45 45 45 45 45 45 44 41 41 44 47 48 50 53 55 56 59 60 59 60 64 67 70 73 77 83 86 90 93 95 94 95 95 90 86 83 68 46 153 189 190 190 197 211 212 206 206 199 179 159 143 130 118 108 106 108 109 105 95 89 90 92 94 96 90 79 70 61 57 55 52 51 52 48 43 38 29 22 18 11 11 17 20 15
45 42 40 41 42 43 43 42 42 41 41 44 48 54 60 62 63 64 65 65 66 68 71 76 81 88 92 90 88 90 95 98 101 97 84 65 49 27 9 357 198 197 194 191 193 189 177 165 155 146 136 127 120 113 110 112 116 115 108 99 92 94 94 92 88 83 74 66 61 57 52 46 43 41 36 31 24 18 16 16 17 21 25 20 14
44 41 39 38 40 43 43 42 41 41 40 41 44 49 55 59 63 66 69 72 75 75 77 82 88 95 99 97 92 89 92 95 87 63 36 24 17 11 14 78 139 154 157 155 155 153 148 142 139 134 127 123 120 117 116 116 114 110 106 100 94 94 98 97 93 89 81 69 60 53 42 33 29 27 23 21 21 24 28 27 26 29 28 19 14
41 39 38 37 38 41 45 44 43 42 40 38 41 47 53 60 65 68 71 73 74 75 76 76 78 83 87 89 87 81 70 56 33 14 8 10 11 14 50 122 133 136 138 137 137 140 141 138 134 130 128 124 121 118 116 116 114 114 112 107 100 97 97 96 95 92 84 72 61 50 36 27 22 20 24 29 33 36 35 30 29 31 29 22 15
41 37 36 36 36 36 38 41 46 49 47 40 40 47 58 65 68 70 71 71 69 70 70 67 64 65 69 73 73 60 36 15 2 356 358 5 16 44 117 134 135 136 135 131 131 133 137 137 135 131 128 125 122 120 117 115 114 114 113 110 106 102 98 96 92 86 79 72 62 45 37 40 41 42 46 48 45 39 33 28 25 24 23 21 14
42 37 33 35 35 32 30 30 36 52 59 51 43 47 63 73 74 74 70 66 64 65 64 60 56 55 55 54 49 33 13 358 347 349 1 15 52 129 144 139 135 139 139 137 138 139 140 140 136 131 129 126 123 120 118 114 111 111 111 112 111 107 103 99 93 85 79 77 70 58 62 71 65 55 51 48 41 35 28 22 18 16 16 16 12
39 34 31 32 33 31 28 26 29 47 67 63 51 50 63 78 84 81 74 65 56 46 40 38 31 20 20 31 34 20 3 350 345 355 8 23 84 146 153 147 145 149 151 150 146 143 142 140 135 131 129 126 123 121 119 116 114 115 116 115 113 110 108 105 102 100 106 111 104 92 85 80 68 51 42 35 28 24 20 16 14 11 10 7 4
32 26 23 26 31 33 31 30 33 47 69 72 61 57 61 70 84 92 83 62 39 18 358 342 336 329 320 346 35 27 13 2 352 342 350 7 38 137 149 143 140 144 148 149 145 141 139 138 135 132 130 128 126 125 124 123 124 125 123 121 118 116 116 115 111 108 112 120 122 113 88 73 60 41 25 17 12 9 7 7 7 7 6 1 354
29 23 14 14 24 32 33 33 36 44 56 65 62 58 59 62 67 77 358 347 356 358 349 339 334 315 278 183 57 46 41 41 31 348 339 360 22 90 121 106 112 127 139 146 145 141 137 134 134 136 135 134 134 135 135 137 138 136 132 132 129 125 122 118 112 109 113 121 128 125 78 25 16 13 6 1 358 357 355 354 354 357 359 356 347
10 16 13 5 10 23 28 28 32 38 43 47 45 43 43 42 38 27 6 343 347 357 1 359 350 314 225 130 62 48 44 45 43 37 35 39 44 51 50 26 51 118 138 147 150 149 146 143 143 147 145 143 145 147 148 149 149 149 150 149 144 144 143 134 126 121 119 117 116 94 27 358 357 357 354 350 348 346 345 344 343 343 346 346 343
348 357 6 359 357 10 19 22 25 31 35 35 31 23 20 21 20 16 10 2 356 357 354 347 339 306 214 125 54 34 22 24 32 37 42 41 35 30 21 1 346 143 160 163 166 170 169 164 160 162 163 165 166 165 163 164 168 172 178 179 180 185 187 179 174 172 145 104 58 11 354 347 346 345 342 341 342 339 337 336 334 331 330 328 326
335 340 350 354 351 358 7 12 17 22 25 28 24 17 13 12 10 5 1 356 353 354 351 346 347 348 314 129 47 18 4 1 4 9 17 17 8 4 1 350 316 252 211 194 189 192 194 189 181 180 184 187 188 185 186 193 202 208 213 215 212 217 225 228 229 239 263 293 316 332 337 337 340 341 340 339 339 337 335 333 330 326 323 319 314
326 331 338 343 346 351 359 5 11 14 16 15 11 4 3 2 359 354 346 334 330 336 341 345 356 2 1 10 19 357 347 342 338 333 336 339 337 336 338 333 291 238 223 215 208 207 212 214 212 209 208 213 215 212 213 222 232 238 241 243 244 244 244 246 251 260 270 282 302 322 335 340 345 347 345 342 340 337 334 332 328 324 321 316 312
321 321 329 337 341 343 346 349 353 357 2 4 359 350 344 344 344 339 330 322 315 314 314 315 322 329 338 5 22 345 320 317 318 319 323 327 325 324 331 339 324 250 226 223 220 219 221 225 230 231 231 232 234 235 237 244 256 263 263 260 258 256 256 255 257 260 264 276 302 326 344 352 354 351 347 345 342 338 335 333 328 324 321 315 312
316 313 321 333 340 341 343 343 343 342 343 347 347 342 336 329 319 310 308 310 310 303 294 290 293 297 298 302 311 305 301 302 305 311 322 330 327 318 322 340 344 305 245 235 231 230 230 231 233 236 238 239 240 243 247 257 270 273 266 259 256 256 256 252 245 247 256 270 308 351 1 1 357 353 349 346 343 341 339 338 335 332 330 323 317
307 310 318 329 336 339 341 342 341 339 337 336 335 333 329 324 315 297 285 289 295 296 292 284 277 277 276 269 268 279 292 299 301 302 311 320 319 312 316 349 5 355 303 257 243 240 238 237 236 236 238 240 242 246 253 266 275 270 256 247 243 238 234 218 181 181 194 173 78 20 4 358 355 354 351 348 347 346 345 344 343 343 342 339 337
299 299 308 318 324 326 327 328 330 331 331 330 328 324 321 320 316 304 285 274 274 278 282 281 278 276 274 272 274 280 286 288 289 289 292 299 302 297 287 322 14 10 353 313 273 256 248 242 238 237 237 238 241 247 257 268 273 266 252 244 239 233 222 204 173 168 169 194 327 348 352 353 355 356 354 351 350 350 347 345 346 349 352 356 13
Height
1498 1497 1497 1497 1497 1497 1497 1498 1499 1501 1502 1502 1502 1502 1502 1503 1503 1504 1505 1507 1509 1511 1512 1514 1516 1518 1519 1521 1522 1524 1526 1528 1529 1530 1531 1533 1534 1535 1537 1538 1539 1541 1542 1543 1544 1546 1547 1548 1549 1550 1551 1552 1554 1555 1556 1557 1559 1560 1560 1562 1563 1565 1566 1567 1568 1568 1570 1571 1572 1573 1574 1574 1575 1575 1576 1576 1577 1577 1578 1579 1579 1579 1579 1579 1579
1496 1495 1495 1495 1495 1496 1496 1497 1499 1501 1502 1501 1501 1500 1500 1501 1501 1502 1503 1505 1507 1510 1512 1514 1515 1517 1518 1519 1521 1523 1525 1526 1528 1529 1530 1532 1533 1534 1536 1537 1538 1540 1541 1542 1543 1544 1546 1547 1548 1549 1550 1552 1553 1554 1555 1556 1558 1559 1560 1561 1563 1564 1566 1567 1567 1568 1570 1571 1572 1573 1573 1574 1575 1575 1575 1576 1576 1577 1577 1578 1578 1579 1579 1579 1579
1495 1494 1493 1493 1494 1495 1495 1497 1498 1498 1499 1499 1499 1499 1499 1499 1500 1501 1502 1504 1506 1509 1511 1513 1515 1516 1517 1518 1520 1522 1524 1525 1527 1528 1529 1531 1532 1533 1535 1536 1537 1539 1540 1541 1543 1544 1545 1546 1547 1548 1549 1551 1552 1553 1554 1556 1557 1558 1560 1561 1562 1564 1565 1566 1567 1568 1570 1571 1572 1573 1573 1574 1574 1575 1575 1575 1576 1576 1577 1577 1578 1578 1579 1579 1579
1494 1493 1492 1492 1492 1492 1493 1494 1494 1494 1495 1496 1496 1497 1497 1498 1499 1500 1502 1503 1506 1508 1510 1512 1514 1515 1516 1517 1519 1520 1522 1524 1526 1527 1529 1530 1532 1533 1534 1535 1536 1538 1539 1541 1542 1543 1544 1545 1546 1547 1548 1550 1551 1552 1554 1555 1556 1558 1559 1561 1562 1563 1565 1566 1567 1568 1569 1570 1571 1572 1573 1574 1574 1574 1575 1575 1575 1576 1577 1577 1578 1578 1578 1579 1579
1493 1492 1491 1490 1490 1491 1491 1491 1491 1491 1492 1493 1494 1495 1496 1497 1498 1499 1500 1502 1504 1507 1509 1510 1512 1514 1515 1516 1517 1519 1521 1523 1525 1526 1528 1529 1531 1532 1533 1534 1536 1537 1539 1540 1541 1542 1543 1544 1545 1546 1547 1549 1550 1552 1553 1554 1556 1557 1559 1560 1561 1563 1564 1565 1567 1568 1569 1570 1571 1572 1572 1573 1574 1574 1574 1575 1575 1576 1576 1577 1577 1578 1578 1579 1579
1493 1492 1490 1489 1489 1489 1489 1488 1488 1488 1489 1491 1493 1493 1494 1496 1497 1497 1499 1500 1502 1505 1507 1509 1511 1513 1515 1516 1517 1518 1520 1523 1524 1526 1527 1529 1530 1531 1533 1534 1535 1536 1538 1539 1540 1541 1542 1543 1544 1546 1547 1548 1549 1551 1553 1554 1555 1557 1558 1560 1561 1562 1563 1565 1566 1567 1568 1569 1570 1571 1572 1572 1573 1573 1574 1574 1575 1575 1576 1576 1577 1577 1578 1578 1578
1492 1491 1490 1488 1487 1487 1487 1486 1485 1485 1486 1488 1489 1491 1492 1493 1494 1496 1496 1498 1500 1503 1506 1508 1510 1512 1514 1515 1516 1518 1520 1521 1523 1525 1527 1528 1529 1531 1532 1533 1534 1535 1537 1538 1540 1541 1542 1543 1544 1545 1546 1548 1549 1551 1552 1554 1555 1557 1558 1559 1561 1562 1563 1564 1565 1566 1567 1568 1569 1570 1571 1572 1572 1573 1573 1573 1574 1574 1575 1575 1576 1577 1577 1577 1577
1491 1490 1489 1487 1486 1485 1485 1484 1483 1483 1484 1486 1487 1488 1490 1491 1492 1494 1495 1497 1499 1502 1504 1506 1508 1510 1513 1514 1515 1517 1519 1520 1522 1524 1526 1527 1529 1530 1531 1532 1533 1534 1536 1537 1539 1540 1541 1542 1544 1545 1546 1548 1549 1550 1552 1553 1555 1556 1558 1559 1560 1561 1563 1564 1565 1566 1567 1567 1568 1569 1570 1571 1571 1572 1572 1573 1573 1573 1574 1575 1575 1576 1576 1576 1576
1490 1488 1487 1486 1485 1484 1483 1482 1482 1483 1483 1483 1484 1485 1487 1488 1490 1492 1494 1496 1498 1500 1503 1505 1507 1509 1511 1513 1514 1516 1518 1520 1522 1523 1525 1526 1528 1529 1530 1531 1533 1534 1535 1537 1538 1540 1541 1542 1543 1545 1546 1548 1549 1550 1552 1553 1554 1556 1557 1558 1559 1561 1562 1563 1564 1565 1566 1567 1567 1568 1569 1570 1570 1571 1571 1572 1572 1573 1573 1573 1574 1574 1574 1574 1574
1489 1487 1486 1485 1484 1483 1482 1480 1480 1481 1481 1481 1481 1482 1483 1486 1488 1490 1492 1494 1496 1499 1501 1504 1507 1509 1510 1511 1513 1515 1517 1519 1521 1523 1525 1526 1527 1528 1529 1531 1532 1533 1534 1536 1537 1539 1541 1542 1543 1545 1546 1548 1549 1550 1551 1553 1554 1555 1556 1557 1559 1560 1561 1562 1563 1564 1565 1566 1566 1567 1568 1569 1569 1569 1570 1570 1571 1571 1571 1572 1572 1572 1572 1572 1572
1489 1487 1485 1484 1483 1482 1480 1479 1478 1478 1478 1478 1479 1479 1480 1483 1485 1487 1490 1492 1494 1497 1500 1502 1505 1506 1508 1510 1513 1515 1517 1519 1521 1523 1524 1525 1526 1527 1529 1530 1531 1533 1534 1535 1537 1539 1540 1541 1543 1545 1546 1548 1549 1550 1551 1552 1553 1554 1556 1557 1558 1559 1561 1562 1563 1564 1564 1565 1566 1566 1567 1568 1568 1568 1569 1569 1569 1569 1570 1570 1570 1570 1570 1570 1570
1489 1487 1485 1483 1481 1480 1479 1477 1476 1476 1476 1476 1476 1476 1478 1480 1482 1485 1487 1490 1493 1496 1499 1501 1503 1504 1507 1510 1513 1515 1517 1519 1521 1523 1524 1525 1526 1527 1528 1530 1531 1532 1533 1535 1537 1538 1540 1541 1543 1544 1546 1547 1548 1550 1551 1552 1554 1555 1556 1557 1558 1560 1561 1562 1562 1563 1564 1564 1565 1565 1566 1567 1567 1568 1568 1568 1568 1568 1568 1568 1568 1568 1568 1568 1568
1490 1487 1485 1483 1480 1478 1476 1475 1474 1474 1474 1474 1474 1475 1476 1478 1481 1484 1486 1489 1492 1495 1498 1500 1502 1504 1507 1510 1513 1515 1517 1519 1521 1523 1524 1525 1526 1527 1528 1529 1531 1532 1533 1535 1537 1538 1540 1541 1542 1544 1545 1547 1548 1550 1551 1552 1554 1555 1556 1558 1559 1559 1560 1561 1562 1562 1563 1563 1564 1564 1565 1566 1566 1566 1566 1567 1567 1567 1567 1567 1567 1567 1567 1566 1566
1491 1488 1486 1483 1480 1477 1475 1474 1473 1473 1473 1473 1474 1475 1475 1477 1480 1483 1485 1488 1491 1494 1498 1500 1502 1504 1507 1510 1513 1515 1517 1519 1522 1523 1524 1525 1526 1527 1528 1529 1531 1532 1533 1535 1537 1538 1540 1541 1542 1543 1545 1547 1548 1550 1551 1552 1554 1555 1556 1557 1558 1559 1560 1561 1561 1562 1562 1563 1563 1563 1564 1564 1565 1565 1565 1565 1565 1565 1565 1565 1565 1565 1565 1564 1564
1492 1490 1487 1484 1481 1478 1476 1475 1473 1473 1473 1473 1473 1474 1475 1477 1480 1482 1485 1487 1491 1494 1498 1500 1502 1504 1507 1511 1513 1516 1517 1519 1521 1523 1524 1525 1526 1527 1528 1529 1530 1532 1533 1535 1536 1538 1539 1541 1543 1544 1545 1547 1548 1550 1551 1552 1554 1555 1556 1557 1557 1558 1559 1560 1561 1561 1562 1562 1562 1562 1562 1563 1563 1563 1563 1563 1563 1563 1563 1563 1562 1562 1562 1562 1561
1493 1491 1488 1485 1483 1480 1478 1476 1475 1474 1474 1473 1473 1473 1475 1477 1479 1481 1484 1487 1490 1493 1496 1500 1502 1505 1508 1511 1513 1516 1517 1519 1521 1523 1524 1525 1526 1527 1529 1530 1531 1532 1533 1534 1535 1537 1539 1541 1542 1544 1545 1546 1548 1549 1551 1552 1553 1555 1555 1556 1557 1557 1558 1559 1560 1560 1560 1560 1561 1561 1561 1561 1561 1561 1561 1561 1561 1561 1560 1560 1560 1560 1560 1560 1560
1495 1492 1490 1487 1485 1483 1481 1479 1478 1477 1477 1476 1475 1474 1475 1477 1479 1482 1484 1487 1490 1492 1495 1499 1502 1505 1508 1511 1513 1515 1517 1519 1521 1523 1524 1525 1527 1528 1529 1530 1531 1532 1533 1534 1535 1537 1539 1541 1543 1544 1545 1546 1548 1549 1551 1552 1553 1554 1555 1555 1556 1556 1557 1557 1558 1558 1558 1558 1558 1559 1559 1559 1559 1559 1559 1559 1559 1559 1558 1558 1558 1558 1558 1558 1558
1497 1495 1492 1490 1487 1486 1484 1482 1481 1480 1479 1479 1479 1477 1476 1477 1480 1483 1486 1488 1491 1493 1495 1498 1502 1505 1508 1510 1512 1515 1517 1519 1521 1522 1524 1525 1527 1528 1529 1530 1531 1532 1533 1535 1537 1538 1540 1542 1544 1545 1546 1547 1548 1549 1550 1552 1552 1553 1553 1554 1554 1554 1555 1555 1556 1556 1556 1557 1556 1556 1557 1557 1557 1557 1558 1558 1557 1557 1557 1557 1557 1557 1557 1557 1557
1499 1497 1495 1493 1490 1488 1486 1485 1483 1482 1482 1482 1483 1483 1481 1481 1483 1485 1487 1490 1493 1496 1498 1499 1502 1505 1508 1510 1512 1514 1516 1519 1521 1522 1523 1525 1527 1528 1529 1530 1530 1531 1533 1535 1537 1539 1541 1542 1544 1545 1546 1547 1548 1549 1550 1551 1551 1552 1552 1552 1552 1553 1553 1554 1554 1555 1555 1555 1555 1555 1555 1555 1556 1556 1556 1556 1556 1556 1555 1555 1555 1555 1555 1555 1555
1503 1501 1499 1496 1494 1491 1489 1488 1487 1485 1485 1485 1485 1486 1486 1486 1487 1488 1490 1492 1495 1499 1501 1502 1504 1506 1508 1511 1512 1514 1516 1518 1519 1522 1523 1525 1527 1528 1529 1529 1530 1531 1533 1535 1536 1539 1540 1542 1543 1544 1545 1546 1547 1548 1549 1550 1550 1550 1550 1551 1551 1551 1552 1552 1552 1553 1553 1553 1553 1554 1554 1554 1554 1554 1554 1554 1554 1554 1554 1554 1554 1554 1554 1554 1554
1506 1504 1501 1499 1497 1494 1492 1491 1490 1488 1488 1488 1488 1489 1490 1491 1493 1493 1495 1496 1499 1502 1504 1505 1506 1508 1509 1512 1513 1514 1516 1517 1518 1520 1523 1525 1527 1528 1529 1530 1530 1531 1533 1535 1537 1538 1540 1541 1543 1544 1545 1546 1547 1548 1548 1549 1549 1549 1549 1549 1550 1550 1550 1551 1551 1551 1552 1552 1552 1552 1553 1553 1553 1553 1553 1553 1553 1553 1553 1553 1553 1553 1553 1553 1553
1509 1507 1504 1502 1500 1498 1496 1495 1495 1493 1492 1491 1491 1492 1493 1495 1496 1498 1499 1501 1503 1505 1506 1507 1508 1508 1510 1513 1515 1516 1517 1519 1519 1521 1523 1525 1527 1528 1529 1530 1530 1531 1533 1535 1536 1538 1539 1541 1542 1543 1544 1545 1546 1547 1547 1547 1548 1548 1548 1548 1549 1549 1550 1550 1550 1550 1550 1551 1551 1551 1551 1552 1552 1552 1552 1552 1552 1552 1552 1552 1552 1552 1552 1552 1552
1511 1509 1507 1505 1503 1501 1500 1500 1499 1499 1499 1498 1497 1497 1498 1499 1500 1501 1503 1505 1507 1508 1509 1510 1511 1511 1511 1514 1516 1517 1519 1520 1521 1522 1524 1525 1526 1528 1529 1530 1530 1531 1533 1534 1536 1537 1538 1540 1541 1542 1543 1544 1545 1546 1546 1547 1547 1547 1547 1548 1548 1549 1549 1549 1549 1549 1550 1550 1550 1550 1550 1550 1551 1551 1551 1551 1551 1551 1551 1551 1551 1551 1552 1552 1552
1513 1511 1509 1508 1506 1505 1503 1503 1503 1503 1503 1503 1503 1503 1503 1504 1505 1506 1507 1508 1509 1511 1512 1513 1514 1513 1514 1515 1517 1518 1520 1521 1522 1523 1524 1525 1526 1527 1528 1529 1530 1531 1532 1534 1535 1536 1538 1539 1540 1541 1542 1543 1544 1545 1545 1546 1546 1546 1547 1547 1548 1548 1548 1548 1548 1548 1549 1549 1549 1549 1549 1549 1549 1550 1550 1550 1550 1550 1551 1551 1551 1551 1551 1551 1551
1515 1513 1511 1511 1510 1508 1507 1506 1506 1505 1505 1505 1505 1506 1506 1507 1508 1509 1509 1510 1511 1513 1514 1514 1515 1515 1516 1517 1519 1520 1521 1522 1523 1524 1524 1525 1526 1527 1528 1529 1530 1531 1532 1533 1535 1536 1537 1538 1539 1540 1541 1542 1543 1544 1545 1545 1546 1546 1547 1547 1547 1547 1547 1547 1547 1547 1547 1548 1548 1548 1548 1548 1549 1549 1549 1549 1550 1550 1550 1550 1550 1550 1550 1550 1550
1517 1515 1514 1513 1512 1512 1510 1509 1508 1509 1508 1508 1508 1507 1507 1508 1509 1510 1511 1512 1513 1514 1515 1515 1516 1516 1517 1519 1520 1521 1522 1523 1523 1524 1525 1526 1527 1527 1528 1529 1530 1531 1532 1533 1534 1535 1536 1537 1539 1540 1541 1542 1543 1544 1544 1545 1545 1546 1546 1547 1547 1547 1547 1546 1546 1546 1546 1547 1547 1547 1548 1548 1548 1548 1549 1549 1549 1549 1550 1550 1550 1550 1550 1549 1549
1519 1518 1517 1516 1514 1514 1513 1512 1512 1512 1512 1512 1511 1511 1511 1511 1511 1511 1512 1514 1515 1515 1516 1516 1517 1517 1518 1519 1520 1522 1523 1523 1524 1525 1526 1527 1527 1528 1528 1529 1530 1530 1531 1532 1533 1534 1536 1537 1538 1540 1541 1542 1543 1543 1544 1545 1545 1546 1546 1546 1546 1546 1546 1546 1546 1546 1546 1546 1546 1547 1547 1547 1548 1548 1549 1549 1549 1550 1550 1550 1550 1550 1549 1549 1549
1522 1521 1520 1519 1517 1516 1515 1515 1514 1514 1515 1515 1515 1514 1514 1514 1514 1514 1515 1516 1517 1517 1518 1519 1519 1519 1520 1522 1523 1524 1524 1525 1526 1526 1527 1527 1528 1528 1528 1529 1529 1530 1531 1532 1533 1534 1536 1537 1538 1540 1541 1542 1543 1543 1544 1544 1545 1545 1545 1545 1545 1546 1546 1546 1546 1546 1546 1546 1546 1546 1547 1547 1548 1548 1549 1549 1550 1550 1550 1550 1550 1549 1549 1549 1548
1524 1523 1522 1521 1520 1519 1518 1517 1517 1517 1517 1517 1517 1517 1517 1517 1517 1518 1519 1520 1520 1521 1521 1522 1522 1522 1523 1524 1525 1525 1526 1526 1527 1527 1527 1528 1528 1528 1528 1529 1529 1530 1531 1532 1533 1534 1536 1538 1539 1540 1542 1542 1543 1543 1544 1544 1544 1544 1544 1545 1545 1545 1545 1546 1546 1545 1546 1546 1546 1547 1547 1548 1548 1549 1549 1550 1550 1550 1550 1549 1549 1549 1548 1548 1547
1527 1526 1525 1524 1523 1522 1521 1520 1519 1519 1519 1519 1519 1519 1520 1520 1520 1521 1522 1522 1523 1524 1524 1524 1524 1525 1525 1526 1526 1527 1527 1528 1527 1527 1528 1528 1528 1528 1528 1529 1530 1530 1531 1533 1534 1535 1537 1538 1540 1541 1542 1543 1543 1543 1544 1544 1543 1543 1544 1544 1545 1545 1545 1545 1545 1546 1546 1547 1547 1548 1548 1549 1549 1550 1550 1550 1550 1550 1549 1549 1549 1549 1548 1548 1547
1529 1528 1528 1527 1525 1524 1523 1522 1522 1521 1521 1521 1521 1521 1522 1523 1523 1523 1524 1524 1525 1525 1525 1525 1525 1526 1526 1527 1527 1528 1529 1529 1529 1529 1529 1529 1529 1529 1530 1530 1531 1532 1533 1534 1535 1537 1538 1539 1540 1542 1542 1543 1543 1543 1543 1543 1543 1543 1544 1544 1544 1545 1545 1545 1546 1546 1547 1548 1548 1549 1549 1549 1550 1550 1550 1550 1550 1550 1550 1549 1549 1549 1548 1548 1547
1531 1531 1530 1529 1528 1527 1525 1525 1524 1524 1523 1523 1523 1523 1524 1524 1525 1526 1526 1527 1527 1527 1526 1526 1526 1527 1527 1528 1529 1529 1530 1530 1531 1531 1531 1531 1531 1531 1531 1532 1533 1533 1535 1536 1537 1538 1539 1540 1541 1542 1542 1543 1543 1543 1543 1543 1543 1543 1544 1544 1544 1545 1546 1546 1547 1547 1548 1549 1549 1549 1550 1550 1550 1550 1550 1550 1550 1550 1550 1550 1550 1549 1549 1549 1548
1533 1533 1533 1532 1531 1530 1528 1528 1527 1526 1526 1525 1525 1525 1526 1526 1527 1528 1528 1529 1529 1529 1528 1527 1527 1528 1529 1530 1530 1531 1532 1532 1532 1533 1533 1533 1534 1534 1534 1534 1535 1535 1536 1537 1538 1539 1540 1540 1541 1542 1542 1542 1543 1543 1543 1543 1543 1543 1544 1544 1545 1545 1546 1547 1548 1548 1549 1549 1550 1550 1550 1550 1551 1551 1551 1551 1551 1551 1551 1550 1550 1550 1549 1549 1548
1536 1535 1535 1534 1533 1532 1531 1530 1530 1529 1528 1528 1527 1527 1528 1528 1529 1529 1530 1531 1531 1531 1530 1530 1529 1530 1531 1532 1532 1533 1534 1534 1535 1535 1536 1536 1536 1537 1537 1537 1537 1537 1538 1538 1539 1539 1540 1541 1541 1542 1542 1543 1543 1543 1543 1543 1543 1544 1544 1545 1545 1546 1547 1548 1549 1549 1550 1550 1550 1550 1551 1551 1551 1551 1552 1552 1552 1551 1551 1551 1550 1550 1549 1549 1548
1538 1537 1537 1536 1535 1534 1534 1533 1532 1531 1531 1530 1530 1530 1530 1530 1530 1531 1532 1532 1533 1533 1532 1532 1532 1533 1534 1534 1535 1536 1536 1537 1537 1538 1538 1539 1539 1539 1539 1538 1538 1538 1538 1538 1539 1540 1540 1541 1541 1542 1542 1542 1543 1543 1543 1543 1544 1544 1545 1546 1547 1547 1548 1548 1549 1550 1550 1550 1551 1551 1551 1551 1552 1552 1552 1552 1551 1551 1551 1551 1550 1550 1549 1549 1548
1540 1539 1539 1538 1537 1536 1536 1535 1534 1534 1533 1533 1533 1533 1532 1532 1533 1533 1533 1534 1534 1534 1534 1534 1534 1535 1536 1537 1538 1538 1539 1539 1540 1540 1540 1540 1540 1539 1539 1538 1538 1538 1538 1538 1539 1539 1540 1540 1541 1541 1542 1542 1543 1543 1543 1544 1545 1545 1546 1547 1547 1548 1548 1549 1550 1550 1550 1551 1551 1551 1552 1552 1552 1552 1552 1551 1551 1551 1551 1550 1550 1549 1549 1549 1548
1543 1542 1540 1539 1539 1538 1538 1537 1537 1536 1535 1535 1535 1535 1534 1534 1535 1535 1536 1536 1536 1536 1536 1536 1537 1537 1538 1539 1540 1540 1541 1541 1541 1541 1541 1541 1540 1540 1539 1538 1538 1538 1538 1539 1540 1540 1540 1541 1541 1542 1542 1543 1543 1544 1544 1545 1545 1546 1547 1547 1548 1548 1549 1550 1550 1551 1551 1552 1552 1552 1552 1552 1552 1552 1552 1551 1551 1551 1550 1550 1549 1549 1549 1548 1548
1545 1544 1542 1541 1541 1540 1540 1540 1539 1538 1537 1537 1537 1537 1537 1537 1537 1537 1538 1538 1538 1538 1539 1539 1539 1540 1540 1541 1541 1542 1542 1542 1542 1542 1542 1541 1541 1541 1540 1540 1540 1540 1540 1540 1541 1541 1541 1541 1542 1542 1542 1543 1544 1544 1545 1545 1546 1547 1547 1548 1549 1549 1550 1550 1551 1551 1552 1552 1552 1552 1552 1552 1552 1552 1552 1551 1551 1551 1550 1550 1549 1549 1548 1548 1547
1547 1546 1545 1544 1543 1542 1542 1541 1541 1540 1539 1539 1539 1539 1539 1539 1539 1540 1540 1540 1540 1541 1541 1541 1542 1542 1542 1543 1543 1543 1544 1544 1543 1543 1543 1542 1542 1542 1542 1542 1542 1542 1542 1542 1542 1542 1542 1542 1542 1543 1543 1544 1544 1545 1545 1546 1546 1547 1548 1548 1549 1550 1550 1551 1551 1552 1552 1553 1553 1553 1553 1553 1552 1552 1552 1551 1551 1551 1550 1549 1549 1548 1548 1547 1547
1548 1547 1547 1546 1545 1544 1543 1542 1542 1542 1541 1541 1541 1541 1541 1541 1542 1542 1542 1542 1542 1543 1543 1543 1543 1544 1544 1544 1544 1544 1545 1544 1544 1544 1544 1544 1543 1543 1543 1543 1543 1543 1543 1542 1542 1542 1543 1543 1543 1543 1544 1544 1545 1545 1546 1547 1547 1548 1548 1549 1550 1550 1551 1551 1552 1552 1553 1553 1553 1553 1553 1553 1553 1552 1552 1551 1551 1550 1550 1549 1548 1548 1547 1547 1546
1550 1549 1548 1548 1547 1546 1545 1544 1543 1543 1543 1543 1543 1543 1543 1543 1544 1544 1544 1544 1545 1545 1545 1545 1545 1545 1545 1545 1545 1545 1545 1545 1545 1545 1545 1545 1544 1544 1544 1544 1543 1543 1543 1543 1543 1543 1544 1544 1544 1545 1545 1545 1546 1546 1547 1547 1548 1548 1549 1550 1550 1551 1551 1551 1552 1552 1553 1553 1553 1553 1553 1553 1553 1552 1552 1551 1550 1550 1549 1549 1548 1548 1547 1547 1546
1551 1551 1550 1549 1549 1548 1547 1546 1545 1544 1544 1545 1545 1545 1545 1545 1545 1546 1546 1546 1546 1546 1546 1547 1547 1546 1546 1547 1546 1546 1546 1546 1546 1546 1545 1545 1545 1545 1545 1544 1544 1544 1544 1544 1544 1545 1545 1545 1545 1546 1546 1546 1547 1547 1548 1548 1549 1549 1550 1550 1550 1551 1551 1552 1552 1552 1552 1553 1553 1553 1553 1553 1552 1552 1551 1550 1550 1549 1549 1548 1548 1548 1547 1547 1546
1552 1552 1551 1551 1550 1550 1549 1548 1547 1546 1546 1546 1546 1546 1546 1547 1547 1547 1547 1547 1547 1547 1547 1547 1547 1547 1547 1547 1547 1547 1546 1546 1546 1546 1546 1545 1545 1545 1545 1545 1545 1545 1545 1545 1545 1545 1546 1546 1546 1547 1547 1547 1548 1548 1549 1549 1549 1550 1550 1550 1550 1551 1551 1551 1552 1552 1552 1552 1553 1553 1553 1552 1551 1551 1550 1549 1549 1549 1549 1548 1548 1547 1547 1547 1546
1552 1552 1552 1552 1551 1551 1550 1550 1549 1548 1548 1548 1548 1548 1548 1548 1548 1548 1548 1548 1548 1548 1548 1547 1547 1547 1547 1548 1548 1547 1547 1547 1546 1546 1546 1546 1545 1545 1545 1545 1545 1545 1545 1546 1546 1546 1546 1547 1547 1547 1548 1548 1548 1549 1549 1549 1550 1550 1550 1550 1550 1551 1551 1551 1551 1552 1552 1552 1552 1552 1551 1551 1550 1550 1549 1549 1549 1548 1548 1548 1548 1547 1547 1546 1546
1552 1552 1552 1552 1552 1552 1551 1551 1550 1550 1550 1549 1549 1549 1549 1549 1548 1549 1549 1549 1548 1548 1548 1547 1547 1547 1547 1548 1548 1548 1547 1547 1547 1547 1546 1546 1546 1546 1546 1546 1546 1546 1546 1546 1546 1547 1547 1547 1548 1548 1548 1548 1549 1549 1549 1549 1549 1550 1550 1550 1550 1550 1551 1551 1551 1551 1551 1551 1551 1551 1550 1550 1549 1549 1548 1548 1548 1548 1547 1547 1547 1547 1546 1546 1546
1552 1552 1552 1552 1552 1552 1552 1552 1551 1551 1550 1550 1550 1550 1549 1549 1549 1549 1549 1549 1549 1548 1548 1548 1547 1548 1548 1548 1548 1548 1548 1548 1547 1547 1547 1547 1546 1546 1546 1546 1546 1546 1546 1547 1547 1547 1548 1548 1548 1548 1548 1548 1549 1549 1549 1549 1549 1549 1550 1550 1550 1550 1550 1551 1551 1550 1550 1550 1550 1549 1549 1549 1548 1548 1548 1547 1547 1547 1547 1546 1546 1546 1545 1545 1545
1552 1552 1552 1552 1552 1552 1552 1552 1551 1551 1551 1551 1550 1550 1550 1550 1549 1549 1549 1549 1549 1548 1548 1548 1548 1548 1548 1548 1548 1548 1548 1548 1548 1547 1547 1547 1547 1546 1546 1546 1545 1546 1546 1546 1547 1547 1547 1548 1548 1548 1548 1548 1548 1548 1548 1549 1549 1549 1549 1549 1549 1549 1550 1550 1549 1549 1549 1549 1549 1548 1548 1548 1547 1547 1547 1547 1546 1546 1546 1545 1545 1544 1544 1544 1543
1552 1552 1552 1552 1551 1552 1552 1552 1552 1551 1551 1551 1551 1550 1550 1550 1550 1549 1549 1549 1549 1548 1548 1548 1548 1548 1548 1548 1548 1548 1548 1548 1547 1547 1547 1547 1546 1546 1546 1545 1545 1545 1545 1546 1546 1547 1547 1547 1547 1548 1548 1548 1548 1548 1548 1548 1548 1548 1548 1549 1549 1549 1549 1548 1548 1548 1548 1548 1548 1547 1547 1547 1547 1547 1546 1546 1546 1545 1545 1544 1544 1543 1543 1542 1542
1551 1551 1551 1551 1551 1551 1551 1551 1551 1551 1551 1551 1551 1550 1550 1549 1549 1549 1549 1549 1548 1548 1548 1548 1548 1548 1548 1548 1547 1547 1547 1547 1547 1547 1547 1547 1546 1546 1545 1545 1545 1545 1545 1545 1545 1546 1546 1546 1547 1547 1547 1547 1547 1547 1547 1548 1548 1548 1548 1548 1548 1548 1548 1547 1547 1547 1547 1547 1547 1547 1547 1547 1546 1546 1546 1546 1545 1545 1544 1543 1542 1542 1541 1541 1541
1551 1551 1551 1551 1551 1551 1551 1551 1551 1550 1550 1550 1550 1550 1549 1549 1549 1548 1548 1548 1548 1548 1548 1547 1547 1547 1547 1547 1547 1547 1547 1547 1547 1547 1546 1546 1546 1546 1545 1545 1544 1544 1544 1544 1545 1545 1545 1545 1546 1546 1546 1546 1547 1547 1547 1547 1547 1547 1547 1547 1547 1547 1547 1547 1546 1546 1546 1546 1546 1546 1546 1546 1546 1546 1545 1545 1544 1544 1543 1542 1541 1541 1540 1540 1540
1551 1551 1551 1551 1550 1550 1550 1550 1550 1550 1550 1549 1549 1549 1549 1549 1548 1548 1547 1547 1547 1547 1547 1547 1546 1546 1546 1546 1546 1546 1546 1546 1546 1546 1546 1546 1545 1545 1545 1544 1544 1544 1544 1544 1544 1544 1544 1544 1544 1545 1545 1545 1545 1546 1546 1546 1546 1546 1546 1546 1546 1546 1546 1546 1546 1546 1546 1546 1546 1546 1546 1546 1545 1545 1545 1544 1544 1543 1542 1541 1541 1540 1540 1539 1540